Location: La Plant
(45.1447°N, 100.6515°W)
Time: 23:06:04
(UTC+00:00)

ISS - Pass Details

Date: 04 December 2020
Orbit: 418 x 419 km, 51.6° (Epoch: 18 January)

Event Time Altitude Azimuth Distance (km) Brightness Sun altitude
Rises 01:42:24 0° 298° (WNW) 2,369 0.9 -27.6°
Reaches altitude 10° 01:44:30 10° 296° (WNW) 1,502 -0.2 -28.0°
Enters shadow 01:45:28 18° 293° (WNW) 1,121 -1.0 -28.2°
